Location: Newark
(35.6799°N, 139.7636°E)
Time: 06:36:11
(UTC+00:00)

Vanguard 1 - All Passes

Search period start: 07 December 2019 00:00
Search period end: 17 December 2019 00:00
Orbit: 652 x 3831 km, 34.2° (Epoch: 05 December)

Date Brightness Start Highest point End Pass type
(mag) Time Alt. Az. Time Alt. Az. Time Alt. Az.
07 Dec - 00:23:22 10° W 00:39:22 69° SSW 00:47:43 10° ESE daylight
07 Dec - 02:51:36 10° W 02:59:16 23° SW 03:04:28 10° S daylight
07 Dec - 15:11:29 10° SSE 15:21:50 15° SE 15:32:30 10° E visible
07 Dec - 17:24:59 10° SSW 17:45:52 45° SE 18:04:22 10° E visible
07 Dec - 19:48:13 10° WSW 20:11:48 74° SSE 20:27:46 10° E visible
07 Dec - 22:16:21 10° W 22:37:24 85° S 22:48:57 10° E daylight
08 Dec - 00:45:13 10° W 01:00:18 58° SSW 01:08:21 10° SE daylight
08 Dec - 03:14:37 10° W 03:19:31 15° SW 03:23:21 10° SSW daylight
08 Dec - 15:28:12 10° S 15:42:37 22° SE 15:57:37 10° E visible
08 Dec - 17:45:12 10° SW 18:07:05 53° SSE 18:26:01 10° ENE visible
08 Dec - 20:09:42 10° WSW 20:33:22 80° SSE 20:48:56 10° E visible
08 Dec - 22:38:19 10° W 22:58:49 83° S 23:09:56 10° ESE daylight
09 Dec - 01:07:07 10° WNW 01:21:04 47° SW 01:28:48 10° SE daylight
09 Dec - 15:46:36 10° S 16:03:26 30° SE 16:20:59 10° E visible
09 Dec - 18:05:46 10° SW 18:28:24 62° SSE 18:47:29 10° ENE visible
09 Dec - 20:31:23 10° WSW 20:54:59 84° S 21:10:06 10° E visible
09 Dec - 23:00:17 10° W 23:20:10 78° SSW 23:30:51 10° ESE daylight
10 Dec - 01:29:07 10° W 01:41:38 37° SW 01:48:58 10° SSE daylight
10 Dec - 16:05:50 10° SSW 16:24:17 38° SE 16:43:30 10° E visible
10 Dec - 18:26:40 10° SW 18:49:51 69° SSE 19:08:52 10° E visible
10 Dec - 20:53:12 10° W 21:16:38 86° S 21:31:14 10° E visible
10 Dec - 23:22:12 10° W 23:41:21 70° SSW 23:51:39 10° ESE daylight
11 Dec - 01:51:25 10° W 02:02:01 27° SW 02:08:46 10° S daylight
11 Dec - 14:12:51 10° SSE 14:22:05 15° SE 14:32:12 10° E visible
11 Dec - 16:25:36 10° SSW 16:45:14 46° SE 17:05:34 10° ENE visible
11 Dec - 18:47:50 10° WSW 19:11:25 76° SSE 19:30:11 10° E visible
11 Dec - 21:15:06 10° W 21:38:16 86° S 21:52:21 10° E visible
11 Dec - 23:44:08 10° WNW 00:02:23 61° SSW 00:12:19 10° SE daylight
12 Dec - 02:14:17 10° W 02:22:15 19° SW 02:27:56 10° S daylight
12 Dec - 14:29:35 10° S 14:42:38 22° SE 14:57:33 10° E visible
12 Dec - 16:45:49 10° SW 17:06:20 54° SSE 17:27:20 10° ENE visible
12 Dec - 19:09:14 10° WSW 19:33:04 81° SSE 19:51:28 10° E visible
12 Dec - 21:37:01 10° W 21:59:50 83° S 22:13:24 10° ESE daylight
13 Dec - 00:06:05 10° WNW 00:23:12 51° SW 00:32:46 10° SE daylight
13 Dec - 02:38:52 10° WSW 02:42:23 12° WSW 02:45:24 10° SW daylight
13 Dec - 14:48:02 10° S 15:03:12 29° SE 15:21:03 10° E visible
13 Dec - 17:06:21 10° SW 17:27:35 63° SSE 17:48:55 10° ENE visible
13 Dec - 19:30:48 10° WSW 19:54:49 85° S 20:12:45 10° E visible
13 Dec - 21:58:56 10° W 22:21:17 78° SSW 22:34:23 10° ESE daylight
14 Dec - 00:28:10 10° WNW 00:43:50 41° SW 00:52:58 10° SSE daylight
14 Dec - 15:07:18 10° SSW 15:23:51 37° SE 15:43:43 10° E visible
14 Dec - 17:27:11 10° SW 17:48:59 70° SSE 18:10:25 10° ENE visible
14 Dec - 19:52:30 10° W 20:16:35 86° S 20:34:00 10° E visible
14 Dec - 22:20:51 10° W 22:42:36 71° SSW 22:55:15 10° ESE daylight
15 Dec - 00:50:30 10° W 01:04:14 31° SW 01:12:49 10° SSE daylight
15 Dec - 13:15:22 10° SSE 13:22:36 13° ESE 13:30:48 10° E visible
15 Dec - 15:27:04 10° SSW 15:44:38 46° SE 16:05:53 10° ENE visible
15 Dec - 17:48:16 10° WSW 18:10:34 77° SSE 18:31:52 10° E visible
15 Dec - 20:14:17 10° W 20:38:21 86° S 20:55:13 10° E visible
15 Dec - 22:42:46 10° WNW 23:03:44 63° SSW 23:15:56 10° SE daylight
16 Dec - 01:13:19 10° W 01:24:30 23° SW 01:32:08 10° S daylight
16 Dec - 13:31:51 10° SSE 13:42:56 20° SE 13:56:36 10° E visible
16 Dec - 15:47:15 10° SW 16:05:36 54° SE 16:27:47 10° ENE visible
16 Dec - 18:09:33 10° WSW 18:32:16 82° SSE 18:53:18 10° E visible
16 Dec - 20:36:05 10° W 21:00:03 83° S 21:16:23 10° ESE visible
16 Dec - 23:04:43 10° WNW 23:24:39 53° SW 23:36:25 10° SE daylight
